Vitoria, Spain

2:46 AM CEST on August 20, 2017 (GMT +0200)
Foronda

Weather History for LEVT - August, 2013

Change the Weather History Date:

Monday, August 5, 2013

  Actual Average Record
Temperature  
Mean Temperature 63 °F -  
Max Temperature 69 °F 78 °F 102 °F (2003)
Min Temperature 57 °F 53 °F 46 °F (2001)
Degree Days  
Heating Degree Days 2    
Growing Degree Days 13 (Base 50)    
Moisture  
Dew Point 60 °F    
Average Humidity 84    
Maximum Humidity 100    
Minimum Humidity 68    
Precipitation  
Precipitation 0.00 in - - ()
Sea Level Pressure  
Sea Level Pressure 30.08 in    
Wind  
Wind Speed 5 mph ()    
Max Wind Speed 16 mph    
Max Gust Speed -    
Visibility 6.0 miles    
Events      
Averages and records for this station are not official NWS values.
T = Trace of Precipitation, MM = Missing Value Source: Averaged Metar Reports

Daily Weather History Graph

Daily Weather History Graph

Search for Another Location

Airport or City:

Trip Planner

Search our weather history database for the weather conditions in past years. The results will help you decide how hot, cold, wet, or windy it might be!

Date:

Astronomy

Aug. 05, 2013 Rise Set
Actual Time 7:06 AM CEST 9:26 PM CEST
Civil Twilight 6:34 AM CEST 9:58 PM CEST
Nautical Twilight 5:55 AM CEST 10:37 PM CEST
Astronomical Twilight 5:11 AM CEST 11:20 PM CEST
Moon 5:48 AM CEST (8/5) 8:17 PM CEST (8/5)
Length of Visible Light 15h 23m
Length of Day
14h 20m
Waning Crescent, 2% of the Moon is Illuminated
Aug 5
Waning Crescent
Aug 6
New
Aug 14
First Quarter
Aug 21
Full
Aug 28
Last Quarter

Hourly Weather History & Observations

Time (CEST) Temp. Dew Point Humidity Pressure Visibility Wind Dir Wind Speed Gust Speed Precip Events Conditions
12:00 AM 66.2 °F 62.6 °F 88% 30.09 in - Calm Calm - N/A   Clear
12:30 AM 66.2 °F 62.6 °F 88% 30.06 in - Calm Calm - N/A   Clear
1:00 AM 64.4 °F 60.8 °F 88% 30.06 in - East 1.2 mph - N/A   Clear
1:30 AM 64.4 °F 60.8 °F 88% 30.06 in - Calm Calm - N/A   Clear
2:00 AM 62.6 °F 60.8 °F 94% 30.06 in - Calm Calm - N/A   Clear
2:30 AM 62.6 °F 60.8 °F 94% 30.04 in - Calm Calm - N/A   Clear
3:00 AM 60.8 °F 59.0 °F 94% 30.04 in - ENE 2.3 mph - N/A   Clear
3:30 AM 60.8 °F 59.0 °F 94% 30.04 in - Variable 2.3 mph - N/A   Clear
4:00 AM 60.8 °F 60.8 °F 100% 30.04 in - East 2.3 mph - N/A   Clear
4:30 AM 60.8 °F 60.8 °F 100% 30.04 in - Calm Calm - N/A   Clear
5:00 AM 60.8 °F 59.0 °F 94% 30.04 in - Calm Calm - N/A   Clear
5:30 AM 59.0 °F 57.2 °F 94% 30.04 in - ENE 2.3 mph - N/A   Clear
6:00 AM 59.0 °F 57.2 °F 94% 30.04 in 5.0 mi Calm Calm - N/A   Unknown
6:30 AM 57.2 °F 57.2 °F 100% 30.04 in 5.0 mi Calm Calm - N/A   Unknown
7:00 AM 57.2 °F 57.2 °F 100% 30.04 in 5.0 mi Calm Calm - N/A   Unknown
7:30 AM 57.2 °F 57.2 °F 100% 30.04 in 5.0 mi Calm Calm - N/A   Unknown
8:00 AM 60.8 °F 60.8 °F 100% 30.06 in - Variable 1.2 mph - N/A   Clear
8:30 AM 62.6 °F 60.8 °F 94% 30.06 in 6.2 mi Calm Calm - N/A   Partly Cloudy
9:00 AM 66.2 °F 59.0 °F 78% 30.09 in 6.2 mi Variable 1.2 mph - N/A   Partly Cloudy
9:30 AM 66.2 °F 59.0 °F 78% 30.09 in 6.2 mi Variable 1.2 mph - N/A   Scattered Clouds
10:00 AM 68.0 °F 60.8 °F 78% 30.09 in 6.2 mi NE 4.6 mph - N/A   Scattered Clouds
10:30 AM 68.0 °F 60.8 °F 78% 30.09 in 6.2 mi NNE 4.6 mph - N/A   Mostly Cloudy
11:00 AM 68.0 °F 60.8 °F 78% 30.09 in 6.2 mi NNW 6.9 mph - N/A   Mostly Cloudy
11:30 AM 68.0 °F 60.8 °F 78% 30.12 in 6.2 mi North 5.8 mph - N/A   Mostly Cloudy
12:00 PM 69.8 °F 59.0 °F 68% 30.09 in 6.2 mi NNE 9.2 mph - N/A   Mostly Cloudy
12:30 PM 69.8 °F 59.0 °F 68% 30.09 in 6.2 mi North 9.2 mph - N/A   Mostly Cloudy
1:00 PM 69.8 °F 59.0 °F 68% 30.12 in 6.2 mi NNE 13.8 mph - N/A   Mostly Cloudy
1:30 PM 69.8 °F 60.8 °F 73% 30.12 in 6.2 mi North 15.0 mph - N/A   Mostly Cloudy
2:00 PM 68.0 °F 60.8 °F 78% 30.12 in 6.2 mi North 15.0 mph - N/A   Mostly Cloudy
2:30 PM 68.0 °F 60.8 °F 78% 30.12 in 6.2 mi NNE 12.7 mph - N/A   Mostly Cloudy
3:00 PM 69.8 °F 60.8 °F 73% 30.09 in 6.2 mi NNE 15.0 mph - N/A   Mostly Cloudy
3:30 PM 69.8 °F 60.8 °F 73% 30.09 in 6.2 mi NE 15.0 mph - N/A   Overcast
4:00 PM 69.8 °F 60.8 °F 73% 30.09 in 6.2 mi NNE 13.8 mph - N/A   Overcast
4:30 PM 68.0 °F 59.0 °F 73% 30.09 in 6.2 mi NNE 16.1 mph - N/A   Overcast
5:00 PM 69.8 °F 59.0 °F 68% 30.09 in 6.2 mi NNE 13.8 mph - N/A   Overcast
5:30 PM 68.0 °F 59.0 °F 73% 30.09 in 6.2 mi NNE 16.1 mph - N/A   Overcast
6:00 PM 68.0 °F 59.0 °F 73% 30.09 in 6.2 mi North 16.1 mph - N/A   Overcast
6:30 PM 66.2 °F 59.0 °F 78% 30.09 in 6.2 mi North 16.1 mph - N/A   Overcast
7:00 PM 66.2 °F 59.0 °F 78% 30.09 in 6.2 mi North 15.0 mph - N/A   Overcast
7:30 PM 66.2 °F 59.0 °F 78% 30.09 in 6.2 mi NNE 15.0 mph - N/A   Overcast
8:00 PM 64.4 °F 59.0 °F 83% 30.09 in 6.2 mi North 15.0 mph - N/A   Overcast
8:30 PM 64.4 °F 59.0 °F 83% 30.09 in 5.6 mi North 13.8 mph - N/A   Overcast
9:00 PM 64.4 °F 59.0 °F 83% 30.09 in 5.6 mi North 13.8 mph - N/A   Overcast
9:30 PM 64.4 °F 59.0 °F 83% 30.09 in 5.6 mi North 10.4 mph - N/A   Overcast
10:00 PM 64.4 °F 59.0 °F 83% 30.12 in 5.6 mi North 10.4 mph - N/A   Overcast
10:30 PM 64.4 °F 59.0 °F 83% 30.12 in 5.6 mi North 10.4 mph - N/A   Mostly Cloudy
11:00 PM 62.6 °F 59.0 °F 88% 30.12 in 6.2 mi North 9.2 mph - N/A   Mostly Cloudy
11:30 PM 62.6 °F 59.0 °F 88% 30.12 in 6.2 mi NNE 10.4 mph - N/A   Mostly Cloudy